This is the latest recevied weather packets stored in our database for station/object KE8ZLU. If no packets are shown the sender has not sent any weather packets the latest 10 day(s).
| Time | Temp. | Humidity | Pressure | Rain* | Wind** | Luminosity | Snow |
|---|---|---|---|---|---|---|---|
| 1777730742 | 3.89° C | 59% | 1020.1 hPa | 0 mm | - | 108 W/m² | - |
| 1777730438 | 4.44° C | 58% | 1020 hPa | 0 mm | - | 110 W/m² | - |
| 1777730134 | 4.44° C | 58% | 1020.2 hPa | 0 mm | - | 425 W/m² | - |
| 1777729831 | 4.44° C | 60% | 1019.9 hPa | 0 mm | - | 409 W/m² | - |
| 1777729527 | 3.89° C | 62% | 1020.2 hPa | 0 mm | - | 393 W/m² | - |
| 1777729225 | 4.44° C | 61% | 1019.9 hPa | 0 mm | - | 379 W/m² | - |
| 1777728921 | 4.44° C | 65% | 1020.1 hPa | 0 mm | - | 364 W/m² | - |
| 1777728618 | 3.89° C | 66% | 1020.2 hPa | 0 mm | - | 347 W/m² | - |
| 1777728315 | 3.89° C | 68% | 1020.1 hPa | 0 mm | - | 335 W/m² | - |
| 1777728012 | 3.89° C | 70% | 1020.2 hPa | 0 mm | - | 318 W/m² | - |
| 1777727709 | 3.89° C | 71% | 1020.2 hPa | 0 mm | - | 305 W/m² | - |
| 1777727406 | 3.89° C | 72% | 1020.1 hPa | 0 mm | - | 231 W/m² | - |
| 1777727103 | 3.33° C | 74% | 1020.1 hPa | 0 mm | - | 211 W/m² | - |
| 1777726801 | 3.33° C | 75% | 1020.1 hPa | 0 mm | - | 262 W/m² | - |
| 1777726497 | 2.78° C | 76% | 1020.2 hPa | 0 mm | - | 246 W/m² | - |
| 1777726195 | 2.78° C | 77% | 1020.1 hPa | 0 mm | - | 232 W/m² | - |
| 1777725891 | 2.78° C | 77% | 1020 hPa | 0 mm | - | 216 W/m² | - |
| 1777725589 | 2.78° C | 79% | 1020.1 hPa | 0 mm | - | 205 W/m² | - |
| 1777725286 | 2.78° C | 80% | 1020 hPa | 0 mm | - | 191 W/m² | - |
| 1777724983 | 2.22° C | 80% | 1020.2 hPa | 0 mm | - | 176 W/m² | - |
| 1777724679 | 2.22° C | 81% | 1020.3 hPa | 0 mm | - | 162 W/m² | - |
| 1777724377 | 2.22° C | 81% | 1020 hPa | 0 mm | - | 138 W/m² | - |
| 1777724074 | 1.67° C | 80% | 1019.9 hPa | 0 mm | - | 131 W/m² | - |
| 1777723772 | 1.67° C | 81% | 1020 hPa | 0 mm | - | 124 W/m² | - |
| 1777723468 | 1.67° C | 82% | 1020 hPa | 0 mm | - | 46 W/m² | - |
* Rain latest hour (hover to see other rain measurements)
** Current wind speed in m/s (hover to see current wind gust speed)